Satellite-Ground Cal/Val Region Overpasses Predictions

Prediction of Satellite NPP Overpassing Cal/Val Region: PacNW

Region Location: (Latitude: 10.00, Longitude: 139.50) to (Latitude: 22.70, Longitude: 165.60).

Table of predicted overpasses for the next 14.0 days since TLE Epoch: 3/9/2024
Interval Starting Time Starting Location Ending Time Ending Location
1 03/09/2024 14:52:34 ( 22.65, 161.86) 03/09/2024 14:56:09 ( 10.03, 158.86)
2 03/10/2024 03:43:09 ( 10.00, 144.02) 03/10/2024 03:46:45 ( 22.68, 141.01)
3 03/10/2024 14:34:43 ( 18.54, 165.60) 03/10/2024 14:37:08 ( 10.02, 163.61)
4 03/10/2024 16:15:03 ( 22.64, 141.23) 03/10/2024 16:17:04 ( 15.54, 139.51)
5 03/11/2024 03:24:08 ( 10.01, 148.77) 03/11/2024 03:27:44 ( 22.69, 145.76)
6 03/11/2024 15:56:02 ( 22.69, 145.99) 03/11/2024 15:59:38 ( 10.01, 142.98)
7 03/12/2024 03:05:08 ( 10.02, 153.52) 03/12/2024 03:08:43 ( 22.64, 150.52)
8 03/12/2024 15:37:02 ( 22.68, 150.74) 03/12/2024 15:40:37 ( 10.06, 147.74)
9 03/13/2024 02:46:07 ( 10.03, 158.27) 03/13/2024 02:49:42 ( 22.66, 155.27)
10 03/13/2024 15:18:01 ( 22.67, 155.49) 03/13/2024 15:21:36 ( 10.04, 152.49)
11 03/14/2024 02:27:07 ( 10.05, 163.02) 03/14/2024 02:30:42 ( 22.67, 160.02)
12 03/14/2024 14:59:01 ( 22.65, 160.24) 03/14/2024 15:02:36 ( 10.03, 157.24)
13 03/15/2024 02:10:44 ( 19.34, 165.59) 03/15/2024 02:11:41 ( 22.68, 164.76)
14 03/15/2024 03:49:35 ( 10.00, 142.40) 03/15/2024 03:53:03 ( 22.22, 139.51)
15 03/15/2024 14:39:59 ( 22.70, 165.00) 03/15/2024 14:43:35 ( 10.01, 161.99)
16 03/15/2024 16:21:29 ( 22.69, 139.62) 03/15/2024 16:21:37 ( 22.23, 139.51)
17 03/16/2024 03:30:35 ( 10.02, 147.15) 03/16/2024 03:34:11 ( 22.70, 144.14)
18 03/16/2024 16:02:29 ( 22.68, 144.37) 03/16/2024 16:06:04 ( 10.06, 141.37)
19 03/17/2024 03:11:34 ( 10.04, 151.90) 03/17/2024 03:15:09 ( 22.66, 148.90)
20 03/17/2024 15:43:28 ( 22.66, 149.12) 03/17/2024 15:47:03 ( 10.04, 146.12)
21 03/18/2024 02:52:34 ( 10.05, 156.64) 03/18/2024 02:56:09 ( 22.68, 153.64)
22 03/18/2024 15:24:28 ( 22.64, 153.86) 03/18/2024 15:28:03 ( 10.02, 150.87)
23 03/19/2024 02:33:32 ( 10.01, 161.40) 03/19/2024 02:37:08 ( 22.69, 158.39)
24 03/19/2024 15:05:26 ( 22.68, 158.62) 03/19/2024 15:09:02 ( 10.00, 155.61)
25 03/20/2024 02:15:13 ( 12.44, 165.60) 03/20/2024 02:18:07 ( 22.66, 163.15)
26 03/20/2024 03:56:02 ( 10.04, 140.78) 03/20/2024 03:57:35 ( 15.50, 139.51)
27 03/20/2024 14:46:26 ( 22.66, 163.37) 03/20/2024 14:50:01 ( 10.04, 160.37)
28 03/21/2024 03:37:02 ( 10.06, 145.52) 03/21/2024 03:40:37 ( 22.68, 142.52)
29 03/21/2024 14:30:25 ( 12.07, 165.59) 03/21/2024 14:31:00 ( 10.02, 165.12)
30 03/21/2024 16:08:54 ( 22.69, 142.76) 03/21/2024 16:12:30 ( 10.01, 139.74)
31 03/22/2024 03:18:00 ( 10.02, 150.28) 03/22/2024 03:21:35 ( 22.64, 147.28)
32 03/22/2024 15:49:54 ( 22.67, 147.50) 03/22/2024 15:53:29 ( 10.05, 144.50)
